BMCB-26 Weather Reports


time (UTC)temp
F
wind
direction
speed
knots
gust
knots
rain 1hr
in
rain 24hr
in
rain mn
in
humidity
%
barometer
mb
20260506202021 47 0 0.0 0.0 0.00 0.61 0.50 91 1009.5
20260506194016 46 0 0.0 0.0 0.00 0.64 0.50 89 1009.2
20260506192019 47 0 0.0 0.0 0.00 0.66 0.50 88 1009.0
20260506191049 47 0 0.0 0.0 0.00 0.66 0.50 90 1008.9
20260506190038 48 0 0.0 0.0 0.00 0.67 0.50 89 1008.7
20260506183104 49 0 0.0 0.0 0.00 0.70 0.50 88 1008.4
20260506182104 50 0 0.0 0.0 0.00 0.70 0.50 86 1008.3
20260506181021 51 0 0.0 0.0 0.00 0.74 0.50 84 1008.1
20260506180036 52 0 0.0 0.0 0.00 0.74 0.50 83 1007.9
20260506175022 52 0 0.0 0.0 0.00 0.74 0.50 84 1007.7
20260506174017 52 0 0.0 0.0 0.00 0.74 0.50 81 1007.6
20260506173016 52 0 0.0 0.0 0.00 0.74 0.50 83 1007.5
20260506172021 53 0 0.0 0.0 0.00 0.74 0.50 81 1007.3
20260506165016 54 0 0.0 0.0 0.00 0.74 0.50 80 1007.1
20260506164059 53 0 0.0 0.0 0.00 0.74 0.50 83 1007.1
20260506162055 53 0 0.0 0.0 0.00 0.74 0.50 85 1007.1
20260506161015 53 0 0.0 0.0 0.00 0.74 0.50 85 1007.2
20260506160015 53 0 0.0 0.0 0.00 0.74 0.50 84 1007.2
20260506154022 55 0 0.0 0.0 0.00 0.74 0.50 83 1006.9
20260506152016 55 0 0.0 0.0 0.00 0.74 0.50 84 1006.8
20260506150017 54 0 0.0 0.0 0.00 0.74 0.50 82 1006.8
20260506145100 54 0 0.0 0.0 0.00 0.74 0.50 85 1006.7
20260506143030 54 0 0.0 0.0 0.00 0.74 0.50 86 1006.8
20260506141056 54 0 0.0 0.0 0.00 0.74 0.50 87 1006.9
20260506140017 54 0 0.0 0.0 0.00 0.74 0.50 87 1006.9
20260506135057 53 0 0.0 0.0 0.00 0.74 0.50 87 1006.9
20260506132058 52 0 0.0 0.0 0.00 0.74 0.50 91 1007.0
20260506131022 51 0 0.0 0.0 0.00 0.74 0.50 91 1007.0
20260506130014 51 0 0.0 0.0 0.00 0.74 0.50 91 1007.0
20260506125016 51 0 0.0 0.0 0.00 0.74 0.50 90 1006.9
20260506123022 51 0 0.0 0.0 0.00 0.74 0.50 88 1006.8
20260506121016 53 0 0.0 0.0 0.00 0.74 0.50 88 1006.6
20260506114046 52 0 0.0 0.0 0.01 0.74 0.50 94 1006.6
20260506113057 51 0 0.0 0.0 0.01 0.74 0.50 95 1006.6
20260506112057 51 0 0.0 0.0 0.01 0.74 0.50 97 1006.7
20260506110054 50 0 0.0 0.0 0.01 0.74 0.50 96 1006.8
20260506104056 50 0 0.0 0.0 0.01 0.74 0.50 98 1006.7
20260506103056 49 0 0.0 0.0 0.00 0.73 0.50 98 1006.8
20260506102021 49 0 0.0 0.0 0.00 0.73 0.50 99 1006.7
20260506094029 48 0 0.0 0.0 0.03 0.75 0.50 99 1006.4
20260506092026 48 0 0.0 0.0 0.03 0.78 0.50 99 1006.3
20260506090023 48 0 0.0 0.0 0.03 0.77 0.49 10 1006.2
20260506085055 48 0 0.0 0.0 0.02 0.76 0.48 10 1006.1
20260506084022 47 0 0.0 0.0 0.02 0.76 0.48 10 1006.0
20260506081023 47 0 0.0 0.0 0.02 0.75 0.46 10 1005.8
20260506073033 47 0 0.0 0.0 0.04 0.74 0.46 10 1005.5
20260506043056 46 0 0.0 0.0 0.06 0.65 0.35 10 1005.1
20260506040023 46 0 0.0 0.0 0.07 0.62 0.33 10 1005.1
20260506034057 46 0 0.0 0.0 0.06 0.61 0.31 10 1005.1
20260506032022 46 0 0.0 0.0 0.06 0.59 0.30 10 1005.2
20260506031051 46 0 0.0 0.0 0.05 0.58 0.29 99 1005.2
20260506022054 47 0 0.0 0.0 0.06 0.55 0.26 10 1005.4
20260506020053 47 0 0.0 0.0 0.06 0.54 0.24 99 1005.4
20260506012026 48 0 0.0 0.0 0.07 0.50 0.21 10 1005.5
20260506010023 48 0 0.0 0.0 0.13 0.49 0.20 10 1005.5
20260506004053 48 0 0.0 0.0 0.11 0.46 0.17 10 1005.6
20260505214109 49 0 0.0 0.0 0.07 0.29 0.29 10 1006.5
20260505213107 49 0 0.0 0.0 0.09 0.28 0.28 10 1006.5
20260505212111 49 0 0.0 0.0 0.09 0.27 0.27 10 1006.6
20260505204108 49 0 0.0 0.0 0.07 0.23 0.23 10 1006.7